Regional Weather Roundup
Issued by NWS Newport/Morehead, NC

Current Version | Previous Version | Text Only | Print | Product List | Glossary On
Versions: 1 2 3 4 5 6 7 8 9 10 11 12 13 14 15 16 17 18 19 20 21 22 23 24 25 26 27 28 29 30 31 32 33 34 35 36 37 38 39 40 41 42 43 44 45 46 47 48 49 50
000
ASUS42 KMHX 292110
RWRMHX
WEATHER ROUNDUP FOR EASTERN NORTH CAROLINA
NATIONAL WEATHER SERVICE NEWPORT/MOREHEAD CITY NC
500 PM EDT WED OCT 29 2014

NOTE: "FAIR" INDICATES FEW OR NO CLOUDS BELOW 12,000 FEET
WITH NO SIGNIFICANT WEATHER AND/OR OBSTRUCTIONS TO VISIBILITY

NCZ015>017-031-032-045>047-102-103-292200-
NORTH COAST

CITY           SKY/WX    TMP DP  RH WIND       PRES   REMARKS
EDENTON        CLOUDY    76  56  51 W6        29.91S
ELIZABETH CITY CLOUDY    76  60  57 SW8       29.90F
KITTY HAWK     MOCLDY    76  61  59 SW5       29.90F
MANTEO         PTSUNNY   72  64  77 S9        29.92S

$$

NCZ045>047-081-094-103-104-292200-
CENTRAL COAST

CITY           SKY/WX    TMP DP  RH WIND       PRES   REMARKS
FRISCO         PTSUNNY   74  68  81 SW8       29.94F
SWANQUARTER      N/A     75 N/A N/A SW7       29.88S

$$

NCZ095-097-098-100-101-292200-
SOUTHERN COAST

CITY           SKY/WX    TMP DP  RH WIND       PRES   REMARKS
BEAUFORT       MOSUNNY   74  67  78 SW13      29.94F
CEDAR ISLAND     N/A     79 N/A N/A SW10      29.97S
JACKSONVILLE   MOSUNNY   77  59  53 SW6       29.93F
PINEY ISLAND   MOCLDY    80  62  54 SW12      29.93F
WILMINGTON     MOSUNNY   78  61  55 SW8       29.94F


$$

NCZ011>013-027>030-043-044-078>080-089-090>093-098-292200-
COASTAL PLAIN

CITY           SKY/WX    TMP DP  RH WIND       PRES   REMARKS
AHOSKIE        NOT AVBL
CLINTON        PTSUNNY   78  58  50 SW7       29.93S
ELIZABETHTOWN  PTSUNNY   79  56  45 SW9       29.93S
GOLDSBORO      PTSUNNY   79  62  55 W1        29.90F
GREENVILLE     PTSUNNY   77  59  53 CALM      29.94S
HAVELOCK       CLOUDY    76  59  55 SW12      29.94F
KENANSVILLE    CLOUDY    77  56  48 SW5       29.93F
KINSTON        CLOUDY    77  55  47 SW3       29.92F
NEW BERN       PTSUNNY   78  61  55 SW5       29.93F
RICHLANDS      PTSUNNY   77  59  53 SW8       29.94S
ROCKY MOUNT    MOSUNNY   76  59  55 S8        29.91F
WASHINGTON     PTSUNNY   77  54  44 W6        29.92S
WHITEVILLE     PTSUNNY   77  60  55 SW6       29.93S

$$

AMZ130-135-150-152-154-156-158-170-250-252-270-ANZ085-086-088-633-658-670-292200-
MARINE OBSERVATIONS

STATION/POSITION TIME  TEMP    WIND        PRES    WAVE   SWELL
                       AIR SEA DIR/SP/G            HT/PER HT/PER
                 (UTC) (F)     (DEG/KT/KT) (MB)    (FT/S) (FT/S)
CHESAPEAKE LIGHT 2000   73     240/ 18/ 19 1012.6
64 E VA BEACH    2100   69 67  200/ 14/ 16 1012.4    3/ 5   2/10
DUCK             2100   72 68  230/  5/  6 1012.1
2 E DUCK         NOT AVBL
10 NE DUCK       2100      68                N/A     2/ 6
OREGON INLET     2100   69 68  190/ 12/ 14 1013.2
13E OREGON INLT  2100      70                N/A     3/ 7
HATTERAS CG      2100      71  220/  9/ 13 1014.3
DIAMOND BUOY     2100   76     220/ 16/ 19 1014.2    4/ 5
17 S OCRACOKE    2000          VRB 17/ 19  1014.4
CAPE LOOKOUT     2000   74     220/  7/ 11 1014.3
BEAUFORT LAB     2100      70  210/  8/ 12 1013.3
30 SE NEW RIVER  2100   74 74  220/ 14/ 16 1013.8    3/ 5
5 SE WRIGHTSVLE  2100   69 71  210/ 14/ 16   N/A
225 S CAPE HAT   1954   76 77  170/  4/  6 1017.5    2/ 9   2/ 9
41 SE CHARLESTON 2100   76 77  230/ 10/ 12 1015.2    2/ 4   2/ 5

$$



USA.gov is the U.S. government's official web portal to all federal, state and local government web resources and services.